Simultaneous Nadir Overpasses (SNOs) Predictions

Prediction of SNOs between GOES-15 and TERRA Satellite Orbit:

Table of predicted SNOs for the next 14.0 days since TLE Epoch: 11/2/2024
Index Date Time (GOES-15) GOES-15 Lat,Lon TERRA Lat,Lon Distance(km) Time Diff (sec)
1 11/02/2024 17:20:57 0.26, 61.48 0.76, 63.90 275.20 80
2 11/03/2024 05:40:42 -0.26, 61.36 0.23, 59.09 258.41 80
3 11/05/2024 05:25:14 -0.26, 61.39 -0.66, 63.47 235.20 80
4 11/05/2024 17:45:05 0.25, 61.51 -0.37, 58.64 326.67 80
5 11/07/2024 17:24:16 0.24, 61.55 0.55, 63.02 166.34 80
6 11/08/2024 05:44:00 -0.24, 61.46 0.45, 58.22 368.44 80
7 11/10/2024 05:28:29 -0.24, 61.50 -0.45, 62.60 125.41 80
8 11/10/2024 17:48:18 0.23, 61.61 -0.60, 57.79 434.98 80
9 11/12/2024 17:27:27 0.23, 61.65 0.34, 62.17 58.61 80
10 11/13/2024 05:47:09 -0.23, 61.57 0.68, 57.38 477.27 80
11 11/15/2024 05:31:36 -0.23, 61.62 -0.29, 61.76 17.25 80
